SL-8 R/B

Satellite information

Favourite Embed

Satellite Type and Status

ROCKET BODYIN ORBIT

Key statistics

Satellite SL-8 R/B at a glance.

Uptime

12520

Days in orbit

Revolutions

≈ 13.8

Per day

Orbit

LEO

Low Earth Orbit

Inclination

82.9

Latest

Satellite identification and parameters

Extended collection of information and parameters for SL-8 R/B.

Object identification

Identified? True

Debris? False

Object name: SL-8 R/B

International designator: 1991-006B

Object number (NORAD): 21088

Object ID (CCSDS): 21088

Country: COMMONWEALTH OF INDEPENDENT STATES (CIS)

Current information (Y/N): Y

RCS size: LARGE

Orbital parameters

Period: 104.541 minutes

Inclination: 82.9454 deg

SMA: 7351.084 km

Apoapsis: 989.618 km

Periapsis: 956.281 km

RAAN: 36.882 deg

Eccentricy: 0.0022675

Argument of periapsis: 165.8057 deg

Mean anomaly: 248.2852 deg

Mean motion: 13.77449421 rev/day

Mean motion (dot): 0.0000008 rev/day2

B* drag term: 0.000065015 1/REarth

Two-line elements (TLE)

Creation date: May 9, 2025, 2:46 a.m.

Reference frame: TEME

Reference center: EARTH

Epoch: May 8, 2025, 6:18 p.m. UTC

TLE line 0: 0 SL-8 R/B

TLE line 1: 1 21088U 91006B 25128.76294291 .00000080 00000-0 65015-4 0 9992

TLE line 2: 2 21088 82.9454 36.8820 0022675 165.8057 248.2852 13.77449421722097

Live tracking on map

Real-time ground track for satellite SL-8 R/B.

In-orbit conjunctions

A list of the most updated potential collisions computed for object SL-8 R/B.

Target Orbit TCA Probability of collision Miss distance Type
SL-8 R/B LEO 2025-01-03 23:31:16 0.0004783456 69.0 (m) ROCKET BODY
FENGYUN 1C DEB SSO 2024-08-14 19:33:24 0.0002526303 163.0 (m) DEBRIS
SL-14 R/B LEO 2024-07-12 13:54:40 0.0001212646 78.0 (m) ROCKET BODY
FENGYUN 1C DEB SSO 2024-06-06 12:10:27 0.0001520895 107.0 (m) DEBRIS

Associated space launch

Informator 1 was a prototype communications satellite for the Koskon (Space Conversion) Global Space Communication System to collect and transmit data from several scientific stations with an additional radio amateur hosted payload. It was launched on 29 January 1991 from the Plesetsk Cosmodrome by a Kosmos-3M launch vehicle.

SL-8 R/B was lifted into orbit during the mission ‘Kosmos-3M | Informator-1’, on board a Kosmos-3M space rocket.

The launch took place on Jan. 29, 1991, 11:59 a.m. from 133/3 (133L).

For more information about the launch, click the button.

Launch to space Kosmos-3M | Informator-1
Kosmos-3M | Informator-1

Agency: N/A

Status: Launch Successful

Launch date: Jan. 29, 1991, 11:59 a.m. UTC

Rocket: Kosmos-3M

Launch pad: 133/3 (133L)

Location: Plesetsk Cosmodrome, Russian Federation

...

Latest news about this satellite

There are no fresh news available about this satellite. Check back as we update our databases every day.


Newsletter sign-up

Weekly statistics, charts and insights to help you stay on top of the space industry.